Humidity-temperature Sensor

Selected Measurement Type: Air Temperature

 
Air Temperature [°C]     6 entries per hour
Showing data from 9/1/2020 (04:40:00 Z) to 8/25/2020 (00:01:00 Z)
Previous Next [ Day | 3-Days | 7-Days ]
First Last
Prev [ Day | 3-Days | 7-Days ] Next
First Last

Start Time:     :
End Time:     :     
Time (in GMT) :00 :50 :40 :30 :20 :10
Previous Next [ Day | 3-Days | 7-Days ]
First Last
Prev [ Day | 3-Days | 7-Days ] Next
First Last


123 => good data
MM => data is determined as missing
-- => data not received/configured
Back to Top Back to Top
9/1/2020 05:00 to 4:10 -- -- 29.06 29.02 29.04 29.06
9/1/2020 04:00 to 3:10 29.10 29.05 28.99 28.92 28.87 28.88
9/1/2020 03:00 to 2:10 28.89 28.88 28.77 28.87 28.84 28.73
9/1/2020 02:00 to 1:10 28.75 28.72 28.70 28.73 28.66 28.76
9/1/2020 01:00 to 0:10 28.63 28.70 28.65 28.63 28.61 28.56
9/1/2020 00:00 to 23:10 28.55 28.60 28.68 28.69 28.73 28.69
8/31/2020 23:00 to 22:10 28.65 28.63 28.66 28.56 28.53 28.51
8/31/2020 22:00 to 21:10 28.98 28.96 29.04 28.92 29.08 28.97
8/31/2020 21:00 to 20:10 29.18 29.11 29.14 29.06 29.08 29.04
8/31/2020 20:00 to 19:10 28.98 28.96 28.88 28.81 28.65 28.63
8/31/2020 19:00 to 18:10 28.61 28.61 28.64 28.63 28.69 28.70
8/31/2020 18:00 to 17:10 28.65 28.63 28.55 28.48 28.57 28.62
8/31/2020 17:00 to 16:10 28.65 28.75 28.77 28.78 28.78 28.77
8/31/2020 16:00 to 15:10 28.71 28.70 28.70 28.73 28.69 28.73
8/31/2020 15:00 to 14:10 28.76 28.86 28.86 28.79 28.81 28.69
8/31/2020 14:00 to 13:10 28.66 28.66 28.73 28.65 28.68 28.68
8/31/2020 13:00 to 12:10 28.63 28.73 28.68 28.64 28.65 29.01
8/31/2020 12:00 to 11:10 29.02 29.10 29.13 29.14 29.13 29.14
8/31/2020 11:00 to 10:10 28.99 28.84 28.64 28.66 29.02 29.04
8/31/2020 10:00 to 9:10 29.12 28.98 29.07 29.02 29.00 29.02
8/31/2020 09:00 to 8:10 29.03 29.01 29.05 29.09 28.99 28.97
8/31/2020 08:00 to 7:10 28.99 28.94 28.94 28.95 28.96 28.90
8/31/2020 07:00 to 6:10 29.00 29.05 29.07 29.16 29.21 29.25
8/31/2020 06:00 to 5:10 29.25 29.22 29.09 29.14 29.17 29.15
8/31/2020 05:00 to 4:10 29.11 29.09 29.12 29.20 29.18 29.08
8/31/2020 04:00 to 3:10 29.05 29.02 28.97 29.00 28.85 28.93
8/31/2020 03:00 to 2:10 28.95 28.89 28.84 28.92 28.89 28.94
8/31/2020 02:00 to 1:10 28.92 28.88 28.84 28.84 28.78 28.86
8/31/2020 01:00 to 0:10 28.88 28.79 28.90 28.90 28.86 28.81
8/31/2020 00:00 to 23:10 28.79 28.76 28.72 28.80 28.75 28.81
8/30/2020 23:00 to 22:10 28.77 28.72 28.67 28.76 28.76 28.86
8/30/2020 22:00 to 21:10 28.85 28.88 28.83 28.89 28.96 28.90
8/30/2020 21:00 to 20:10 28.86 28.88 28.90 28.81 28.84 28.81
8/30/2020 20:00 to 19:10 28.76 28.69 28.60 28.49 28.52 28.54
8/30/2020 19:00 to 18:10 28.53 28.54 28.53 28.48 28.48 28.35
8/30/2020 18:00 to 17:10 28.36 28.47 28.54 28.45 28.49 28.48
8/30/2020 17:00 to 16:10 28.52 28.51 28.55 28.52 28.57 28.52
8/30/2020 16:00 to 15:10 28.55 28.57 28.52 28.60 28.63 28.63
8/30/2020 15:00 to 14:10 28.69 28.72 28.60 28.66 28.73 28.67
8/30/2020 14:00 to 13:10 28.81 28.72 28.75 28.77 28.73 28.84
8/30/2020 13:00 to 12:10 28.78 28.80 28.81 28.84 28.80 28.81
8/30/2020 12:00 to 11:10 28.81 28.89 28.86 28.86 28.89 28.83
8/30/2020 11:00 to 10:10 28.81 28.69 28.70 28.68 28.63 28.66
8/30/2020 10:00 to 9:10 28.60 28.60 28.66 28.51 28.52 28.52
8/30/2020 09:00 to 8:10 28.51 28.46 28.46 28.62 28.44 28.31
8/30/2020 08:00 to 7:10 28.33 28.73 28.77 28.75 28.77 28.73
8/30/2020 07:00 to 6:10 28.74 28.83 28.94 28.91 28.95 29.02
8/30/2020 06:00 to 5:10 28.96 28.98 29.01 28.89 28.86 28.96
8/30/2020 05:00 to 4:10 28.90 28.79 28.76 28.80 28.71 28.71
8/30/2020 04:00 to 3:10 28.70 28.75 28.70 28.76 28.64 28.68
8/30/2020 03:00 to 2:10 28.64 28.64 28.69 28.66 28.66 28.63
8/30/2020 02:00 to 1:10 28.59 28.53 28.59 28.59 28.59 28.53
8/30/2020 01:00 to 0:10 28.65 28.51 28.56 28.51 28.53 28.62
8/30/2020 00:00 to 23:10 28.54 28.61 28.51 28.55 28.58 28.55
8/29/2020 23:00 to 22:10 28.53 28.59 28.48 28.47 28.52 28.62
8/29/2020 22:00 to 21:10 28.54 28.55 28.52 28.48 28.55 28.52
8/29/2020 21:00 to 20:10 28.61 28.63 28.55 28.45 28.53 28.56
8/29/2020 20:00 to 19:10 28.53 28.54 28.53 28.57 28.44 28.39
8/29/2020 19:00 to 18:10 28.45 28.45 28.43 28.44 28.42 28.44
8/29/2020 18:00 to 17:10 28.42 28.40 28.38 28.44 28.47 28.34
8/29/2020 17:00 to 16:10 28.39 28.34 28.45 28.37 28.45 28.39
8/29/2020 16:00 to 15:10 28.48 28.42 28.48 28.43 28.51 28.53
8/29/2020 15:00 to 14:10 28.42 28.37 28.36 28.39 28.44 28.47
8/29/2020 14:00 to 13:10 28.49 28.54 28.51 28.54 28.49 28.59
8/29/2020 13:00 to 12:10 28.62 28.67 28.66 28.68 28.68 28.66
8/29/2020 12:00 to 11:10 28.66 28.66 28.71 28.71 28.69 28.64
8/29/2020 11:00 to 10:10 28.65 28.62 28.66 28.69 28.75 28.69
8/29/2020 10:00 to 9:10 28.76 28.70 28.67 28.76 28.77 28.70
8/29/2020 09:00 to 8:10 28.74 28.63 28.67 28.72 28.76 28.65
8/29/2020 08:00 to 7:10 28.71 28.72 28.71 28.71 28.72 28.74
8/29/2020 07:00 to 6:10 28.70 28.78 28.82 28.79 28.89 28.87
8/29/2020 06:00 to 5:10 28.86 28.86 28.75 28.89 28.83 28.84
8/29/2020 05:00 to 4:10 28.78 28.84 28.73 28.80 28.70 28.69
8/29/2020 04:00 to 3:10 28.76 28.73 28.68 28.70 28.69 28.75
8/29/2020 03:00 to 2:10 28.67 28.64 28.59 28.68 28.65 28.62
8/29/2020 02:00 to 1:10 28.62 28.57 28.62 28.56 28.63 28.59
8/29/2020 01:00 to 0:10 28.57 28.61 28.58 28.64 28.55 28.55
8/29/2020 00:00 to 23:10 28.53 28.57 28.62 28.55 28.58 28.52
8/28/2020 23:00 to 22:10 28.58 28.54 28.55 28.66 28.52 28.51
8/28/2020 22:00 to 21:10 28.60 28.55 28.53 28.59 28.68 28.69
8/28/2020 21:00 to 20:10 28.66 28.68 28.69 28.58 28.52 28.54
8/28/2020 20:00 to 19:10 28.50 28.49 28.50 28.38 28.32 28.43
8/28/2020 19:00 to 18:10 28.34 28.38 28.32 28.39 28.37 28.31
8/28/2020 18:00 to 17:10 28.34 28.36 28.32 28.32 28.48 28.42
8/28/2020 17:00 to 16:10 28.42 28.43 28.34 27.45 28.48 28.44
8/28/2020 16:00 to 15:10 28.42 28.34 28.45 28.41 28.40 28.38
8/28/2020 15:00 to 14:10 28.41 28.37 28.43 28.45 28.48 28.44
8/28/2020 14:00 to 13:10 28.52 28.42 28.50 28.55 28.61 28.61
8/28/2020 13:00 to 12:10 28.56 28.56 28.58 28.59 28.55 28.56
8/28/2020 12:00 to 11:10 28.72 28.65 28.65 28.69 28.62 28.62
8/28/2020 11:00 to 10:10 28.67 28.61 28.62 28.66 28.63 28.65
8/28/2020 10:00 to 9:10 28.58 28.70 28.60 28.68 28.62 28.65
8/28/2020 09:00 to 8:10 28.64 28.70 28.75 28.71 28.72 28.78
8/28/2020 08:00 to 7:10 28.76 28.74 28.88 28.80 28.85 28.92
8/28/2020 07:00 to 6:10 28.82 28.92 29.07 29.12 29.10 29.14
8/28/2020 06:00 to 5:10 28.87 29.02 28.92 28.97 29.05 28.93
8/28/2020 05:00 to 4:10 28.91 28.82 28.74 28.83 28.76 28.69
8/28/2020 04:00 to 3:10 28.74 28.71 28.67 28.70 28.66 28.56
8/28/2020 03:00 to 2:10 28.55 28.59 28.56 28.55 28.53 28.59
8/28/2020 02:00 to 1:10 28.58 28.56 28.46 28.49 28.44 28.47
8/28/2020 01:00 to 0:10 28.38 28.41 28.41 28.41 28.38 28.43
8/28/2020 00:00 to 23:10 28.40 28.34 28.36 28.37 28.36 28.32
8/27/2020 23:00 to 22:10 28.33 28.34 28.38 28.34 28.34 28.30
8/27/2020 22:00 to 21:10 28.26 28.32 28.37 28.37 28.49 28.47
8/27/2020 21:00 to 20:10 28.46 28.42 28.40 28.40 28.35 28.34
8/27/2020 20:00 to 19:10 28.32 28.36 28.29 28.26 28.18 28.14
8/27/2020 19:00 to 18:10 28.15 28.13 28.21 28.18 28.12 28.08
8/27/2020 18:00 to 17:10 28.12 28.20 28.19 28.17 28.18 28.20
8/27/2020 17:00 to 16:10 28.35 28.26 28.23 28.28 28.30 28.29
8/27/2020 16:00 to 15:10 28.29 28.31 28.30 28.31 28.31 28.27
8/27/2020 15:00 to 14:10 28.35 28.35 28.35 28.33 28.39 28.45
8/27/2020 14:00 to 13:10 28.44 28.46 28.49 28.50 28.56 28.54
8/27/2020 13:00 to 12:10 28.57 28.58 28.62 28.66 28.69 28.67
8/27/2020 12:00 to 11:10 28.72 28.84 28.78 28.69 28.65 28.65
8/27/2020 11:00 to 10:10 28.64 28.64 28.65 28.68 28.69 28.70
8/27/2020 10:00 to 9:10 28.69 28.72 28.74 28.84 28.79 28.80
8/27/2020 09:00 to 8:10 28.76 28.85 28.79 28.79 28.75 28.79
8/27/2020 08:00 to 7:10 28.78 28.79 28.79 28.71 28.78 28.67
8/27/2020 07:00 to 6:10 28.72 28.76 28.79 28.80 28.84 28.78
8/27/2020 06:00 to 5:10 28.81 28.84 28.88 28.77 28.69 28.93
8/27/2020 05:00 to 4:10 29.07 29.19 29.34 29.86 29.06 29.03
8/27/2020 04:00 to 3:10 29.28 29.05 29.11 29.00 29.02 28.84
8/27/2020 03:00 to 2:10 29.05 28.93 28.83 28.71 28.76 28.65
8/27/2020 02:00 to 1:10 28.69 28.49 28.52 28.42 28.47 28.64
8/27/2020 01:00 to 0:10 28.45 28.62 28.63 28.50 28.78 28.50
8/27/2020 00:00 to 23:10 28.60 28.94 28.79 29.04 28.76 28.68
8/26/2020 23:00 to 22:10 28.41 28.49 28.52 28.41 28.25 28.27
8/26/2020 22:00 to 21:10 28.37 28.34 28.54 28.54 29.10 28.61
8/26/2020 21:00 to 20:10 28.37 28.48 28.33 28.34 28.61 28.41
8/26/2020 20:00 to 19:10 28.47 28.36 28.45 28.20 28.09 27.94
8/26/2020 19:00 to 18:10 27.90 27.91 27.97 27.92 27.99 27.97
8/26/2020 18:00 to 17:10 28.05 27.96 28.06 28.01 28.00 28.06
8/26/2020 17:00 to 16:10 28.01 27.99 27.99 28.03 28.01 28.00
8/26/2020 16:00 to 15:10 27.99 28.03 27.97 28.01 28.05 28.07
8/26/2020 15:00 to 14:10 28.09 28.09 28.15 28.22 28.18 28.19
8/26/2020 14:00 to 13:10 28.21 28.26 28.29 28.30 28.26 28.32
8/26/2020 13:00 to 12:10 28.38 28.41 28.34 28.40 28.39 28.48
8/26/2020 12:00 to 11:10 28.46 28.46 28.53 28.62 28.62 28.58
8/26/2020 11:00 to 10:10 28.62 28.63 28.60 28.65 28.63 28.64
8/26/2020 10:00 to 9:10 28.65 28.69 28.71 28.69 28.73 28.75
8/26/2020 09:00 to 8:10 28.78 28.79 28.84 28.82 28.79 28.74
8/26/2020 08:00 to 7:10 28.78 28.88 28.74 28.75 28.70 28.77
8/26/2020 07:00 to 6:10 28.86 29.10 29.05 29.28 29.39 29.44
8/26/2020 06:00 to 5:10 29.46 29.66 29.53 29.46 29.31 29.41
8/26/2020 05:00 to 4:10 29.41 30.06 29.20 28.93 29.16 28.87
8/26/2020 04:00 to 3:10 29.03 29.09 29.23 28.80 28.66 28.73
8/26/2020 03:00 to 2:10 28.63 28.61 28.57 28.52 28.52 28.42
8/26/2020 02:00 to 1:10 28.45 28.39 28.42 28.43 28.48 28.45
8/26/2020 01:00 to 0:10 28.39 28.45 28.55 28.50 28.45 28.51
8/26/2020 00:00 to 23:10 28.50 28.45 28.40 28.44 28.44 28.38
8/25/2020 23:00 to 22:10 28.41 28.48 28.49 28.48 28.34 28.45
8/25/2020 22:00 to 21:10 28.39 28.44 28.49 28.53 28.55 28.62
8/25/2020 21:00 to 20:10 28.54 28.60 28.55 28.48 28.46 28.51
8/25/2020 20:00 to 19:10 28.51 28.48 28.43 28.32 28.29 28.29
8/25/2020 19:00 to 18:10 28.24 28.31 28.25 28.24 28.24 28.23
8/25/2020 18:00 to 17:10 28.31 28.23 28.27 28.23 28.22 28.25
8/25/2020 17:00 to 16:10 28.19 28.24 28.29 28.26 28.29 28.35
8/25/2020 16:00 to 15:10 28.31 28.33 28.39 28.33 28.39 28.26
8/25/2020 15:00 to 14:10 28.32 28.36 28.37 28.34 28.44 28.36
8/25/2020 14:00 to 13:10 28.35 28.42 28.53 28.50 28.43 28.45
8/25/2020 13:00 to 12:10 28.47 28.48 28.54 28.43 28.58 28.51
8/25/2020 12:00 to 11:10 28.63 28.57 28.53 28.63 28.58 28.60
8/25/2020 11:00 to 10:10 28.66 28.63 28.68 28.68 28.66 28.70
8/25/2020 10:00 to 9:10 28.65 28.63 28.72 28.71 28.69 28.66
8/25/2020 09:00 to 8:10 28.67 28.66 28.64 28.64 28.60 28.68
8/25/2020 08:00 to 7:10 28.74 28.65 28.62 28.75 28.73 28.83
8/25/2020 07:00 to 6:10 28.84 28.79 28.76 28.80 28.77 28.80
8/25/2020 06:00 to 5:10 28.81 28.81 28.77 28.80 28.83 28.75
8/25/2020 05:00 to 4:10 28.89 28.81 28.87 28.87 28.77 28.82
8/25/2020 04:00 to 3:10 28.85 28.86 28.91 28.81 28.79 28.86
8/25/2020 03:00 to 2:10 28.81 28.72 28.71 28.63 28.82 28.63
8/25/2020 02:00 to 1:10 28.72 28.67 28.64 28.67 28.67 28.58
8/25/2020 01:00 to 0:10 28.68 28.67 28.58 28.60 28.58 28.66